Weather History for Stuttgart, AR

Change the Weather History Date:

Saturday, March 2, 2013

  Actual Average Record
Temperature  
Mean Temperature 32 °F -  
Max Temperature 37 °F 55 °F 82 °F (2012)
Min Temperature 28 °F 39 °F 28 °F (2009)
Degree Days  
Heating Degree Days 32    
Moisture  
Dew Point 22 °F    
Average Humidity 62    
Maximum Humidity 80    
Minimum Humidity 48    
Precipitation  
Precipitation 0.00 in - - ()
Sea Level Pressure  
Sea Level Pressure 30.26 in    
Wind  
Wind Speed 12 mph (NNW)    
Max Wind Speed 17 mph    
Max Gust Speed 22 mph    
Visibility 10 miles    
Events      
Averages and records for this station are not official NWS values.
T = Trace of Precipitation, MM = Missing Value Source: NWS Daily Summary

Daily Weather History Graph

Daily Weather History Graph

Search for Another Location

Airport:

Trip Planner

Search our weather history database for the weather conditions in past years. The results will help you decide how hot, cold, wet, or windy it might be!

Date:

Astronomy

Mar. 02, 2013 Rise Set
Actual Time 6:33 AM CST 6:03 PM CST
Civil Twilight 6:08 AM CST 6:28 PM CST
Nautical Twilight 5:39 AM CST 6:57 PM CST
Astronomical Twilight 5:10 AM CST 7:27 PM CST
Moon 11:27 PM CST (3/2) 9:16 AM CST (3/2)
Length of Visible Light 12h 20m
Length of Day
11h 29m
Waning Gibbous, 74% of the Moon is Illuminated
Mar 2
Waning Gibbous
Mar 4
Last Quarter
Mar 11
New
Mar 19
First Quarter
Mar 27
Full

Hourly Weather History & Observations

Time (CST) Temp. Windchill Dew Point Humidity Pressure Visibility Wind Dir Wind Speed Gust Speed Precip Events Conditions
12:15 AM 33.8 °F 23.9 °F 21.2 °F 60% 30.22 in 10.0 mi NW 15.0 mph 19.6 mph N/A   Overcast
12:35 AM 33.8 °F 23.9 °F 21.2 °F 60% 30.22 in 10.0 mi NNW 15.0 mph - N/A   Overcast
12:55 AM 33.8 °F 23.9 °F 21.2 °F 60% 30.22 in 10.0 mi NW 15.0 mph - N/A   Overcast
1:15 AM 33.8 °F 23.9 °F 21.2 °F 60% 30.22 in 10.0 mi NW 15.0 mph - N/A   Overcast
1:55 AM 33.8 °F 24.8 °F 21.2 °F 60% 30.22 in 10.0 mi NW 12.7 mph - N/A   Overcast
2:15 AM 33.8 °F 24.8 °F 21.2 °F 60% 30.22 in 10.0 mi NNW 12.7 mph - N/A   Overcast
2:35 AM 33.8 °F 24.8 °F 21.2 °F 60% 30.22 in 10.0 mi NW 12.7 mph - N/A   Overcast
2:56 AM 33.8 °F 24.8 °F 21.2 °F 60% 30.22 in 10.0 mi NNW 12.7 mph - N/A   Overcast
3:15 AM 33.8 °F 23.5 °F 23.0 °F 65% 30.22 in 10.0 mi NNW 16.1 mph - N/A   Overcast
3:35 AM 33.8 °F 25.8 °F 23.0 °F 65% 30.22 in 10.0 mi NW 10.4 mph - N/A   Overcast
3:55 AM 33.8 °F 24.8 °F 23.0 °F 65% 30.22 in 10.0 mi NW 12.7 mph - N/A   Overcast
4:15 AM 32.0 °F 22.5 °F 23.0 °F 69% 30.23 in 10.0 mi NW 12.7 mph - N/A   Overcast
4:35 AM 32.0 °F 23.0 °F 23.0 °F 69% 30.23 in 10.0 mi NNW 11.5 mph - N/A   Overcast
4:55 AM 32.0 °F 22.5 °F 23.0 °F 69% 30.23 in 10.0 mi NNW 12.7 mph - N/A   Overcast
5:15 AM 32.0 °F 24.2 °F 24.8 °F 75% 30.23 in 10.0 mi NW 9.2 mph - N/A   Overcast
5:35 AM 32.0 °F 23.6 °F 24.8 °F 75% 30.23 in 10.0 mi NW 10.4 mph - N/A   Overcast
5:55 AM 32.0 °F 25.6 °F 24.8 °F 75% 30.24 in 10.0 mi NW 6.9 mph - N/A   Overcast
6:16 AM 32.0 °F 24.2 °F 24.8 °F 75% 30.24 in 10.0 mi NW 9.2 mph - N/A   Overcast
6:35 AM 32.0 °F 23.6 °F 24.8 °F 75% 30.25 in 10.0 mi NW 10.4 mph - N/A   Overcast
6:55 AM 32.0 °F 24.2 °F 24.8 °F 75% 30.25 in 10.0 mi NW 9.2 mph - N/A   Overcast
7:35 AM 33.8 °F 24.8 °F 24.8 °F 70% 30.26 in 10.0 mi NW 12.7 mph - N/A   Overcast
7:55 AM 33.8 °F 25.3 °F 24.8 °F 70% 30.27 in 10.0 mi NNW 11.5 mph - N/A   Overcast
8:16 AM 33.8 °F 24.8 °F 24.8 °F 70% 30.28 in 10.0 mi NW 12.7 mph - N/A   Overcast
9:15 AM 32.0 °F 23.0 °F 24.8 °F 75% 30.30 in 10.0 mi NNW 11.5 mph - N/A   Overcast
9:35 AM 32.0 °F 23.0 °F 21.2 °F 64% 30.30 in 10.0 mi NNW 11.5 mph - N/A   Overcast
9:55 AM 33.8 °F 25.3 °F 21.2 °F 60% 30.30 in 10.0 mi NNW 11.5 mph - N/A   Overcast
10:15 AM 33.8 °F 24.8 °F 21.2 °F 60% 30.30 in 10.0 mi NNW 12.7 mph - N/A   Overcast
10:35 AM 33.8 °F 24.3 °F 21.2 °F 60% 30.30 in 10.0 mi NNW 13.8 mph - N/A   Overcast
10:55 AM 33.8 °F 24.3 °F 21.2 °F 60% 30.30 in 10.0 mi NNW 13.8 mph - N/A   Overcast
11:15 AM 35.6 °F 25.5 °F 21.2 °F 56% 30.30 in 10.0 mi NNW 17.3 mph - N/A   Overcast
11:55 AM 35.6 °F 25.5 °F 21.2 °F 56% 30.29 in 10.0 mi North 17.3 mph - N/A   Overcast
12:35 PM 35.6 °F 25.9 °F 21.2 °F 56% 30.28 in 10.0 mi NNW 16.1 mph - N/A   Overcast
12:56 PM 35.6 °F 26.6 °F 21.2 °F 56% 30.28 in 10.0 mi North 13.8 mph - N/A   Overcast
1:15 PM 35.6 °F 27.1 °F 21.2 °F 56% 30.27 in 10.0 mi North 12.7 mph - N/A   Overcast
1:35 PM 35.6 °F 27.5 °F 19.4 °F 52% 30.27 in 10.0 mi NNW 11.5 mph 18.4 mph N/A   Overcast
1:55 PM 35.6 °F 25.9 °F 19.4 °F 52% 30.26 in 10.0 mi NNW 16.1 mph - N/A   Overcast
2:15 PM 37.4 °F 29.8 °F 19.4 °F 48% 30.26 in 10.0 mi NNW 11.5 mph - N/A   Overcast
2:35 PM 37.4 °F 28.2 °F 21.2 °F 52% 30.26 in 10.0 mi NNW 16.1 mph 19.6 mph N/A   Overcast
2:55 PM 37.4 °F 29.3 °F 19.4 °F 48% 30.26 in 10.0 mi NNW 12.7 mph 18.4 mph N/A   Overcast
3:15 PM 37.4 °F 28.9 °F 19.4 °F 48% 30.26 in 10.0 mi NW 13.8 mph - N/A   Overcast
3:55 PM 37.4 °F 28.9 °F 19.4 °F 48% 30.26 in 10.0 mi NNW 13.8 mph 19.6 mph N/A   Mostly Cloudy
4:15 PM 37.4 °F 27.8 °F 19.4 °F 48% 30.26 in 10.0 mi NNW 17.3 mph 21.9 mph N/A   Mostly Cloudy
4:35 PM 37.4 °F 29.3 °F 19.4 °F 48% 30.26 in 10.0 mi NW 12.7 mph - N/A   Scattered Clouds
4:55 PM 37.4 °F 28.9 °F 19.4 °F 48% 30.26 in 10.0 mi NNW 13.8 mph - N/A   Partly Cloudy
5:35 PM 37.4 °F 28.9 °F 19.4 °F 48% 30.27 in 10.0 mi NNW 13.8 mph - N/A   Clear
5:55 PM 35.6 °F 28.0 °F 19.4 °F 52% 30.27 in 10.0 mi NNW 10.4 mph - N/A   Clear
9:55 PM 30.2 °F - 21.2 °F 69% 30.29 in 10.0 mi Calm Calm - N/A   Clear
10:15 PM 30.2 °F - 21.2 °F 69% 30.30 in 10.0 mi Calm Calm - N/A   Clear
10:35 PM 30.2 °F - 21.2 °F 69% 30.29 in 10.0 mi Calm Calm - N/A   Clear
10:55 PM 30.2 °F 26.7 °F 21.2 °F 69% 30.28 in 10.0 mi South 3.5 mph - N/A   Clear
11:15 PM 28.4 °F 23.3 °F 23.0 °F 80% 30.28 in 10.0 mi South 4.6 mph - N/A   Clear
11:35 PM 28.4 °F 24.6 °F 23.0 °F 80% 30.28 in 10.0 mi South 3.5 mph - N/A   Clear
11:55 PM 28.4 °F 24.6 °F 23.0 °F 80% 30.27 in 10.0 mi South 3.5 mph - N/A   Clear